Eagle, CO

1:45 AM MDT on October 24, 2017 (GMT -0600)
Eagle County Regional

Weather History for KEGE - October, 2012

Change the Weather History Date:

Saturday, October 6, 2012

  Actual Average Record
Temperature  
Mean Temperature 44 °F -  
Max Temperature 55 °F 69 °F 84 °F (1975)
Min Temperature 32 °F 30 °F 18 °F (1953)
Degree Days  
Heating Degree Days 22    
Moisture  
Dew Point 5 °F    
Average Humidity 21    
Maximum Humidity 41    
Minimum Humidity 10    
Precipitation  
Precipitation 0.00 in - - ()
Sea Level Pressure  
Sea Level Pressure 30.12 in    
Wind  
Wind Speed 6 mph (NE)    
Max Wind Speed 10 mph    
Max Gust Speed 18 mph    
Visibility 10 miles    
Events      
Averages and records for this station are not official NWS values.
T = Trace of Precipitation, MM = Missing Value Source: NWS Daily Summary

Daily Weather History Graph

Daily Weather History Graph

Search for Another Location

Airport or City:

Trip Planner

Search our weather history database for the weather conditions in past years. The results will help you decide how hot, cold, wet, or windy it might be!

Date:

Astronomy

Oct. 06, 2012 Rise Set
Actual Time 7:09 AM MDT 6:41 PM MDT
Civil Twilight 6:42 AM MDT 7:08 PM MDT
Nautical Twilight 6:11 AM MDT 7:39 PM MDT
Astronomical Twilight 5:39 AM MDT 8:10 PM MDT
Moon 11:00 PM MDT (10/6) 1:05 PM MDT (10/6)
Length of Visible Light 12h 25m
Length of Day
11h 32m
Waning Gibbous, 65% of the Moon is Illuminated
Oct 6
Waning Gibbous
Oct 8
Last Quarter
Oct 15
New
Oct 21
First Quarter
Oct 29
Full

Hourly Weather History & Observations

Time (MDT) Temp. Windchill Dew Point Humidity Pressure Visibility Wind Dir Wind Speed Gust Speed Precip Events Conditions
6:15 AM 33.8 °F 27.0 °F 10.4 °F 38% 30.15 in 10.0 mi East 8.1 mph - N/A   Clear
6:35 AM 33.8 °F 25.8 °F 8.6 °F 35% 30.16 in 10.0 mi East 10.4 mph - N/A   Clear
6:50 AM 32.0 °F - 10.4 °F 41% 30.17 in 10.0 mi Calm Calm - N/A   Partly Cloudy
8:50 AM 37.4 °F - 8.6 °F 30% 30.21 in 10.0 mi Calm Calm - N/A   Clear
9:50 AM 42.8 °F - 6.8 °F 23% 30.20 in 10.0 mi Calm Calm - N/A   Clear
10:50 AM 46.4 °F 44.3 °F 3.2 °F 17% 30.18 in 10.0 mi Variable 4.6 mph - N/A   Partly Cloudy
11:50 AM 48.2 °F - 1.4 °F 15% 30.16 in 10.0 mi Calm Calm - N/A   Partly Cloudy
1:50 PM 53.6 °F - 1.4 °F 12% 30.10 in 10.0 mi SSW 8.1 mph - N/A   Partly Cloudy
2:50 PM 55.4 °F - 1.4 °F 11% 30.07 in 10.0 mi West 8.1 mph 18.4 mph N/A   Scattered Clouds
3:50 PM 53.6 °F - 1.4 °F 12% 30.06 in 10.0 mi WSW 8.1 mph - N/A   Scattered Clouds
4:50 PM 55.4 °F - -0.4 °F 10% 30.05 in 10.0 mi WSW 9.2 mph - N/A   Scattered Clouds
5:50 PM 53.6 °F - 1.4 °F 12% 30.05 in 10.0 mi West 9.2 mph - N/A   Mostly Cloudy
6:50 PM 51.8 °F - 3.2 °F 14% 30.07 in 10.0 mi NW 8.1 mph - N/A   Mostly Cloudy
7:15 PM 51.8 °F - 1.4 °F 13% 30.08 in 10.0 mi NNE 3.5 mph - N/A   Clear
7:35 PM 48.2 °F - 5.0 °F 17% 30.09 in 10.0 mi East 5.8 mph - N/A   Clear
8:15 PM 48.2 °F - 3.2 °F 16% 30.10 in 10.0 mi WNW 4.6 mph - N/A   Clear
8:35 PM 46.4 °F 45.2 °F 3.2 °F 17% 30.11 in 10.0 mi WSW 3.5 mph - N/A   Clear
8:55 PM 44.6 °F 41.4 °F 6.8 °F 21% 30.11 in 10.0 mi NE 5.8 mph - N/A   Clear
9:15 PM 42.8 °F 39.3 °F 8.6 °F 25% 30.11 in 10.0 mi ENE 5.8 mph - N/A   Clear
9:35 PM 42.8 °F 40.1 °F 6.8 °F 23% 30.11 in 10.0 mi NE 4.6 mph - N/A   Clear
9:55 PM 39.2 °F 37.0 °F 6.8 °F 26% 30.11 in 10.0 mi East 3.5 mph - N/A   Clear
10:15 PM 37.4 °F 32.1 °F 6.8 °F 28% 30.11 in 10.0 mi East 6.9 mph - N/A   Clear